User: anonymous   Login
Location: Fisheating Creek Campgrounds
(26.9333°N, 81.3167°W)
Time: 02:59:58
(UTC-04:00)
Language:

NATO 3D Rocket - Orbit

View from above orbital plane
View from above orbital plane
View from above satellite
View from above satellite

Ground track
Ground track

The orbit data is extracted from the following two-line orbital elements,

1 15392U 84115B   16273.82390049 +.00000121 +00000-0 -22809-4 0  9993
2 15392 021.4912 060.8675 1034580 056.8229 312.7183 12.45534517433738
Epoch (UTC): 29 September 2016 19:46:25
Eccentricity: 0.1034580
inclination: 21.4912°
perigee height: 670 km
apogee height: 2296 km
right ascension of ascending node: 60.8675°
argument of perigee: 56.8229°
revolutions per day: 12.45534517
mean anomaly at epoch: 312.7183°
orbit number at epoch: 43373

The dashed part of the orbit path shows where the satellite is in the earth's shadow,  

DLR